Regional Weather Roundup
Issued by NWS Cleveland, OH

Home | Current Version | Previous Version | Graphics & Text | Print | Product List | Glossary On
Versions: 1 2 3 4 5 6 7 8 9 10 11 12 13 14 15 16 17 18 19 20 21 22 23 24 25 26 27 28 29 30 31 32 33 34 35 36 37 38 39 40 41 42 43 44 45 46 47 48 49 50
000
ASUS41 KCLE 190910
RWRCLE
OHIO REGIONAL WEATHER ROUNDUP
NATIONAL WEATHER SERVICE WILMINGTON, OH
400 AM EST FRI DEC 19 2014

NOTE: "FAIR" INDICATES FEW OR NO CLOUDS BELOW 12,000 FEET WITH NO
SIGNIFICANT WEATHER AND/OR OBSTRUCTIONS TO VISIBILITY.

OHZ001>008-015>018-024>027-034-035-043-044-191000-
   NORTHWEST OHIO

CITY           SKY/WX    TMP DP  RH WIND       PRES   REMARKS
DEFIANCE       CLOUDY    29  23  78 CALM      30.23S
FINDLAY        CLOUDY    29  24  82 W8        30.21S WCI  21
TOLEDO EXPRESS CLOUDY    28  25  88 W9        30.21S WCI  19
TOLEDO METCALF CLOUDY    30  25  81 W8        30.22R WCI  22
LIMA           CLOUDY    30  23  75 W8        30.21S HAZE    WCI  22
$$

OHZ009>014-019>023-028>033-038-089-191000-
   NORTHEAST OHIO

CITY           SKY/WX    TMP DP  RH WIND       PRES   REMARKS
CLE-HOPKINS    SNOW      30  28  92 W7        30.20S VSB 1/2 WCI  23
CLE-LAKEFRONT  CLOUDY    31  27  85 NW15      30.17S WCI  20
CUY CO. ARPT   NOT AVBL
LORAIN-ELYRIA  CLOUDY    29  27  92 W10       30.19S WCI  20
ASHTABULA      CLOUDY    30  25  81 NW6       30.15S WCI  24
AKRON-CANTON   LGT SNOW  29  26  89 W8        30.16R FOG     WCI  21
WOOSTER        CLOUDY    28  26  92 W7        30.17S WCI  21
MANSFIELD      CLOUDY    27  25  92 W7        30.17S FOG     WCI  19
YOUNGSTOWN     LGT SNOW  29  27  92 W9        30.13S FOG     WCI  20
$$

OHZ042-051>053-060>062-070>072-077>081-191000-
  SOUTHWEST OHIO

CITY           SKY/WX    TMP DP  RH WIND       PRES   REMARKS
CINC-COVINGTON MOCLDY    25  19  78 NW5       30.23S WCI  19
CINC-LUNKEN    MOCLDY    22  21  96 CALM      30.27S FOG
HAMILTON       CLOUDY    28  23  81 NW6       30.26S WCI  22
DAYTON         CLOUDY    28  21  75 N6        30.23S WCI  22
WRIGHT-PAT AFB CLOUDY    28  21  76 NW8       30.23S WCI  20
DAYTON GENERAL CLOUDY    27  20  75 NW6       30.22S WCI  20
WILMINGTON     CLOUDY    27  19  72 N7        30.21S WCI  19
$$

OHZ036-037-039>041-045>050-054>059-063>069-073>076-082>088-191000-
  CENTRAL AND SOUTHEAST OHIO

CITY           SKY/WX    TMP DP  RH WIND       PRES   REMARKS
COLUMBUS       CLOUDY    28  21  75 NW6       30.22S WCI  22
OSU AIRPORT    CLOUDY    28  22  78 W5        30.21S WCI  23
BOLTON FIELD   CLOUDY    28  22  81 MISG      30.22F
RICKENBACK AFB CLOUDY    28  21  75 NW6       30.22F WCI  22
NEWARK         CLOUDY    29  22  75 NW3       30.21S
MARION         CLOUDY    28  23  81 W7        30.21R HAZE    WCI  21
LANCASTER      CLOUDY    29  23  78 NW5       30.21F WCI  24
ZANESVILLE     CLOUDY    27  22  81 NW3       30.21R
NEW PHILLY     CLOUDY    29  25  85 CALM      30.19S
$$



USA.gov is the U.S. government's official web portal to all federal, state and local government web resources and services.